カタログに戻る

ATLAS 5 CENTAUR DEB

運用中HEO
NORAD 44659·DEBRIS·🇺🇸 United States

打ち上げ Oct 17, 2018 から Cape Canaveral Space Force Station

Loading…

次のパス (今後24時間)

TLE

経年Source: Space-Track

元期: Aug 27, 2026, 14:45 UTC

1 44659U 18079V   26239.61466514 -.00000144  00000-0  00000+0 0  9997
2 44659  13.5349  11.8249 4539563   2.7203 358.9554  1.90593694 50728

AllMySatでATLAS 5 CENTAUR DEBをリアルタイム追跡

Download on the App Store